Location: Newark
(45.8667°N, 9.7333°E)
Time: 16:56:06
(UTC+00:00)

A-11 Canister half - Pass Details

Date: 26 January 2020
Orbit: 1517 x 1683 km, 47.2° (Epoch: 26 February)

Event Time Altitude Azimuth Distance (km) Brightness Sun altitude
Rises 21:55:49 0° 218° (SW) 4,763 - -56.1°
Reaches altitude 10° 21:59:03 10° 213° (SSW) 3,758 - -56.5°
Maximum altitude 22:07:58 48° 143° (SE) 1,934 - -57.6°
Drops below altitude 10° 22:16:41 10° 73° (ENE) 3,686 - -58.5°
Sets 22:19:49 0° 68° (ENE) 4,666 - -58.8°
